Date,TemperatureHighF,TemperatureAvgF,TemperatureLowF,DewpointHighF,DewpointAvgF,DewpointLowF,HumidityHigh,HumidityAvg,HumidityLow,PressureMaxIn,PressureMinIn,WindSpeedMaxMPH,WindSpeedAvgMPH,GustSpeedMaxMPH,PrecipitationSumIn
2013-3-1,31.9,29.0,25.1,29.2,23.0,19.3,91,78,71,30.18,30.00,0,0,0,0.00
2013-3-2,28.8,24.9,19.3,20.1,18.0,14.1,81,75,67,30.19,30.13,0,0,0,0.00
2013-3-3,32.7,25.1,18.2,20.1,17.7,15.0,87,74,55,30.14,30.06,0,0,0,0.00
2013-3-4,37.3,23.8,15.5,21.4,17.2,13.1,91,77,48,30.20,30.10,0,0,0,0.00
2013-3-5,36.4,30.5,27.5,27.5,22.3,18.6,91,72,58,30.13,29.82,0,0,0,0.00
2013-3-6,37.7,32.9,27.5,30.5,28.0,24.2,89,82,74,30.26,29.92,0,0,0,0.00
2013-3-7,37.7,33.9,28.1,30.4,26.8,23.3,90,76,59,30.44,30.25,0,0,0,0.00
2013-3-8,43.6,32.8,21.9,26.4,24.0,19.5,91,72,48,30.54,30.41,0,0,0,0.00
2013-3-9,44.3,37.2,28.7,36.1,29.7,24.1,84,75,62,30.42,29.98,0,0,0,0.00
2013-3-10,59.1,49.9,42.0,48.0,42.0,35.6,93,75,64,29.98,29.71,0,0,0,0.10
2013-3-11,55.0,46.0,35.2,50.0,43.4,33.1,100,91,66,29.73,29.50,0,0,0,0.11
2013-3-12,35.5,32.7,30.8,33.2,29.5,25.0,95,88,70,29.95,29.69,0,0,0,0.01
2013-3-13,31.4,27.5,24.5,29.6,22.2,17.1,100,81,63,30.31,29.93,0,0,0,0.01
2013-3-14,41.0,31.8,23.7,25.2,20.0,13.8,82,63,39,30.32,30.13,0,0,0,0.01
2013-3-15,42.7,35.9,32.0,37.2,32.3,22.7,95,87,64,30.14,29.85,0,0,0,0.11
2013-3-16,36.2,31.8,27.8,34.7,28.9,23.8,96,89,76,30.11,29.74,0,0,0,0.03
2013-3-17,35.8,30.4,26.6,24.3,21.2,18.4,84,69,55,30.28,30.09,0,0,0,0.00
2013-3-18,34.4,30.6,26.3,33.4,27.5,20.3,96,88,72,30.17,29.60,0,0,0,0.06
2013-3-19,33.1,25.1,20.5,30.9,19.9,17.4,94,81,63,30.03,29.69,0,0,0,0.00
2013-3-20,29.2,22.9,18.2,18.8,16.6,12.7,89,77,64,30.05,29.98,0,0,0,0.00
2013-3-21,29.5,23.6,15.9,25.8,20.0,13.7,92,86,73,30.04,29.97,0,0,0,0.01
2013-3-22,37.7,30.6,26.4,26.0,22.9,20.0,85,73,61,30.09,30.03,0,0,0,0.01
2013-3-23,34.9,29.7,24.4,26.2,23.4,21.0,92,77,66,30.18,30.07,0,0,0,0.00
2013-3-24,38.4,31.9,26.2,28.3,25.6,23.1,89,78,64,30.09,29.68,0,0,0,0.00
2013-3-25,37.4,34.4,30.9,32.0,27.6,24.9,83,76,69,30.00,29.64,0,0,0,0.00
2013-3-26,41.6,35.6,31.7,33.4,30.3,27.6,89,81,65,30.20,29.99,0,0,0,0.00
2013-3-27,44.5,37.4,31.2,33.2,27.7,22.8,93,70,49,30.30,30.20,0,0,0,0.00
2013-3-28,51.0,39.5,31.7,31.7,27.6,24.6,88,64,42,30.33,30.27,0,0,0,0.00
2013-3-29,51.7,39.3,25.6,29.5,24.7,22.3,89,59,33,30.33,30.25,0,0,0,0.00
2013-3-30,56.1,42.7,26.5,35.3,28.2,21.3,89,59,37,30.26,29.91,0,0,0,0.00
2013-3-31,54.8,46.6,39.4,43.2,38.7,32.2,96,75,55,29.93,29.67,0,0,0,0.04